GW7146 Weather Reports


Display with metric or nautical units.
time (UTC)temp
F
wind
direction
speed
MPH
gust
MPH
rain 1hr
in
rain 24hr
in
rain mn
in
humidity
%
barometer
mb
20260508105512 49 266 12.0 21.0 0.01 0.37 0.24 91 998.0
20260508105010 49 206 13.0 23.0 0.01 0.38 0.24 91 997.9
20260508104525 49 284 9.0 23.0 0.01 0.38 0.24 91 997.8
20260508104010 49 289 12.0 24.0 0.01 0.38 0.24 92 997.7
20260508103510 49 342 12.0 24.0 0.01 0.38 0.24 92 997.6
20260508103031 49 286 10.0 23.0 0.01 0.38 0.24 92 997.4
20260508102509 49 257 7.0 20.0 0.01 0.38 0.24 91 997.3
20260508102010 49 288 7.0 25.0 0.01 0.38 0.24 91 997.2
20260508101516 50 308 6.0 25.0 0.01 0.38 0.24 91 997.2
20260508101008 50 247 14.0 25.0 0.01 0.38 0.23 90 997.2
20260508100507 50 281 5.0 20.0 0.01 0.38 0.23 90 997.1
20260508100022 50 297 8.0 20.0 0.01 0.38 0.23 90 997.0
20260508095507 50 214 8.0 21.0 0.01 0.39 0.23 90 996.9
20260508095013 50 265 11.0 21.0 0.01 0.41 0.23 90 996.9
20260508094522 50 314 8.0 19.0 0.01 0.42 0.23 90 996.7
20260508094009 50 270 10.0 21.0 0.01 0.43 0.23 90 996.7
20260508093514 50 233 12.0 21.0 0.01 0.43 0.23 90 996.6
20260508093027 50 239 9.0 25.0 0.01 0.43 0.23 90 996.5
20260508092508 50 243 12.0 25.0 0.01 0.43 0.23 90 996.5
20260508092012 50 255 10.0 20.0 0.01 0.43 0.23 89 996.5
20260508091528 51 256 10.0 20.0 0.01 0.43 0.23 89 996.5
20260508091011 51 267 8.0 17.0 0.00 0.42 0.22 88 996.5
20260508090509 51 260 10.0 23.0 0.00 0.43 0.22 88 996.4
20260508090016 51 256 7.0 23.0 0.00 0.43 0.22 88 996.5
20260508085506 51 272 11.0 22.0 0.00 0.43 0.22 87 996.3
20260508085007 51 260 11.0 27.0 0.00 0.44 0.22 88 996.5
20260508084519 51 242 12.0 27.0 0.00 0.44 0.22 88 996.3
20260508084011 51 269 11.0 19.0 0.00 0.45 0.22 89 996.2
20260508083509 51 279 12.0 23.0 0.00 0.46 0.22 88 996.2
20260508083025 51 292 14.0 23.0 0.00 0.47 0.22 88 996.1
20260508082508 52 276 13.0 24.0 0.00 0.47 0.22 88 996.0
20260508082013 52 262 11.0 26.0 0.00 0.48 0.22 88 995.9
20260508081526 52 256 12.0 26.0 0.00 0.48 0.22 88 995.9
20260508081014 52 285 9.0 21.0 0.00 0.49 0.22 89 995.9
20260508080510 52 245 8.0 23.0 0.00 0.50 0.22 89 995.7
20260508080035 52 265 12.0 23.0 0.00 0.52 0.22 89 995.7
20260508075512 52 198 9.0 19.0 0.00 0.52 0.22 88 995.6
20260508075009 52 241 7.0 21.0 0.03 0.54 0.22 88 995.7
20260508074518 52 247 7.0 27.0 0.03 0.55 0.22 88 995.7
20260508074007 52 265 14.0 27.0 0.05 0.56 0.22 88 995.8
20260508073509 52 230 11.0 29.0 0.05 0.57 0.22 89 995.9
20260508073002 52 222 12.0 29.0 0.05 0.57 0.22 89 995.9
20260508072507 53 266 12.0 19.0 0.05 0.57 0.22 89 995.9
20260508072003 53 228 8.0 18.0 0.05 0.58 0.22 89 995.8
20260508071503 53 272 10.0 18.0 0.05 0.58 0.22 90 995.8
20260508071004 53 258 6.0 25.0 0.06 0.58 0.22 91 995.9
20260508070507 53 245 6.0 25.0 0.07 0.58 0.22 91 996.0
20260508070009 53 237 9.0 17.0 0.09 0.58 0.22 91 996.0
20260508065505 53 251 9.0 26.0 0.09 0.58 0.22 91 996.0
20260508065008 53 267 12.0 26.0 0.07 0.55 0.19 91 995.9
20260508064520 53 259 11.0 22.0 0.08 0.56 0.19 90 996.1
20260508064008 54 240 10.0 22.0 0.08 0.55 0.17 90 996.0
20260508063507 54 254 14.0 22.0 0.08 0.58 0.17 90 996.1
20260508063023 54 251 10.0 21.0 0.12 0.63 0.17 91 996.1
20260508062508 53 233 12.0 28.0 0.13 0.71 0.17 92 996.0
20260508062003 54 249 14.0 27.0 0.14 0.81 0.17 92 996.0
20260508061505 54 265 13.0 26.0 0.15 1.10 0.17 92 996.0
20260508061006 54 268 12.0 24.0 0.15 1.20 0.16 92 995.8
20260508060506 54 278 9.0 23.0 0.15 1.24 0.15 92 995.8
20260508060012 54 251 11.0 21.0 0.13 1.31 0.13 92 995.8
20260508055503 55 305 12.0 19.0 0.13 1.31 0.13 92 995.7
20260508055004 55 269 12.0 22.0 0.12 1.30 0.12 92 995.5
20260508054516 55 233 11.0 22.0 0.11 1.32 0.11 92 995.5
20260508054008 55 240 10.0 18.0 0.09 1.30 0.09 92 995.5
20260508053511 55 267 10.0 17.0 0.09 1.30 0.09 92 995.9
20260508053021 55 312 8.0 16.0 0.05 1.26 0.05 92 995.8
20260508052511 55 283 8.0 13.0 0.04 1.25 0.04 91 995.9
20260508052008 55 311 5.0 12.0 0.03 1.24 0.03 91 996.1
20260508051520 55 272 7.0 14.0 0.02 1.23 0.02 90 996.4
20260508051003 55 294 6.0 14.0 0.01 1.22 0.01 89 996.3
20260508050510 55 294 7.0 13.0 0.00 1.21 0.00 88 996.2
20260508050017 56 291 7.0 13.0 0.00 1.21 0.00 87 996.1
20260508045504 56 347 6.0 13.0 0.00 1.21 0.00 86 996.0
20260508045004 56 271 6.0 13.0 0.00 1.21 0.00 85 996.3
20260508044507 56 268 6.0 14.0 0.00 1.21 0.00 85 996.3
20260508044009 56 310 5.0 14.0 0.00 1.21 0.00 84 996.3
20260508043507 56 271 6.0 19.0 0.00 1.21 0.00 84 996.2
20260508043013 56 295 4.0 19.0 0.00 1.21 0.00 84 996.3
20260508042510 56 251 8.0 15.0 0.00 1.21 0.00 83 996.4
20260508042007 56 254 6.0 18.0 0.00 1.21 0.00 83 996.0
20260508041519 57 251 7.0 18.0 0.00 1.21 0.00 83 996.0
20260508041007 57 340 9.0 15.0 0.00 1.21 0.00 83 996.1
20260508040510 57 244 7.0 19.0 0.00 1.21 0.00 83 996.2
20260508040035 57 249 9.0 19.0 0.00 1.21 0.00 83 996.3
20260508035503 57 272 6.0 17.0 0.00 1.21 0.00 83 996.2
20260508035002 57 269 10.0 16.0 0.00 1.21 0.00 83 996.4
20260508034507 57 243 6.0 15.0 0.00 1.21 0.00 83 996.5
20260508034002 57 268 4.0 17.0 0.00 1.21 0.00 82 996.3
20260508033507 57 256 9.0 17.0 0.00 1.21 0.00 82 996.3
20260508033012 57 289 7.0 20.0 0.00 1.21 0.00 81 996.4
20260508032506 57 274 8.0 20.0 0.00 1.21 0.00 80 996.4
20260508032007 57 260 9.0 19.0 0.00 1.21 0.00 81 996.3
20260508031525 57 299 8.0 19.0 0.00 1.21 0.00 80 996.4
20260508031008 57 278 9.0 18.0 0.00 1.21 0.00 81 996.4
20260508030511 57 256 8.0 20.0 0.00 1.21 0.00 80 996.4
20260508030022 57 243 9.0 20.0 0.00 1.21 0.00 80 996.4
20260508025508 57 266 9.0 14.0 0.00 1.21 1.21 79 996.5
20260508025008 57 274 4.0 15.0 0.00 1.21 1.21 79 996.2
20260508024540 57 274 8.0 15.0 0.00 1.21 1.21 79 996.2
20260508024003 57 270 8.0 16.0 0.00 1.21 1.21 78 996.1
20260508023504 57 237 6.0 16.0 0.00 1.21 1.21 78 996.1
20260508023022 58 272 9.0 16.0 0.00 1.21 1.21 78 996.5
20260508022504 57 220 9.0 16.0 0.00 1.21 1.21 78 996.6
20260508022007 57 279 6.0 13.0 0.00 1.21 1.21 78 996.6
20260508021515 57 330 5.0 14.0 0.00 1.21 1.21 78 996.5
20260508021010 57 249 9.0 14.0 0.00 1.21 1.21 77 996.6
20260508020508 57 273 8.0 14.0 0.00 1.21 1.21 77 996.9
20260508020020 57 293 7.0 16.0 0.00 1.21 1.21 77 997.1
20260508015507 58 260 7.0 23.0 0.00 1.21 1.21 77 997.4
20260508015008 57 240 11.0 23.0 0.00 1.21 1.21 76 997.2
20260508014543 57 263 7.0 16.0 0.00 1.21 1.21 77 997.1
20260508014011 57 245 7.0 14.0 0.00 1.21 1.21 77 997.3
20260508013509 58 262 7.0 14.0 0.00 1.21 1.21 78 997.3
20260508013008 58 278 6.0 16.0 0.00 1.21 1.21 78 997.2
20260508012503 58 278 7.0 16.0 0.00 1.21 1.21 78 997.3
20260508012004 58 268 9.0 16.0 0.00 1.21 1.21 78 997.3
20260508011512 58 249 6.0 16.0 0.00 1.21 1.21 78 997.6
20260508011007 58 262 7.0 16.0 0.00 1.21 1.21 78 997.8
20260508010505 58 249 9.0 19.0 0.00 1.21 1.21 77 997.9
20260508010026 58 247 9.0 19.0 0.00 1.21 1.21 78 998.0
20260508005510 58 233 4.0 16.0 0.00 1.21 1.21 78 998.1
20260508005009 58 299 9.0 15.0 0.00 1.21 1.21 78 998.3
20260508004524 58 232 9.0 19.0 0.00 1.21 1.21 78 998.3
20260508004011 58 283 6.0 19.0 0.00 1.21 1.21 79 998.2
20260508003507 58 275 9.0 20.0 0.00 1.21 1.21 79 998.2
20260508003048 58 229 11.0 20.0 0.00 1.21 1.21 80 998.3
20260508002513 58 295 9.0 16.0 0.00 1.21 1.21 79 998.0
20260508002008 58 266 9.0 17.0 0.00 1.21 1.21 79 998.1
20260508001508 58 291 11.0 21.0 0.00 1.21 1.21 79 998.2
20260508001004 58 301 9.0 21.0 0.00 1.21 1.21 79 998.4
20260508000505 58 254 9.0 18.0 0.00 1.21 1.21 79 998.6
20260508000016 59 270 7.0 18.0 0.00 1.21 1.21 78 998.8
20260507235512 59 300 9.0 18.0 0.00 1.21 1.21 79 998.8
20260507235008 59 287 11.0 18.0 0.00 1.21 1.21 79 998.9
20260507234521 59 231 9.0 18.0 0.00 1.21 1.21 80 998.8
20260507234008 59 307 9.0 18.0 0.00 1.21 1.21 81 999.0
20260507233510 59 267 10.0 21.0 0.00 1.21 1.21 81 999.0
20260507233031 59 287 7.0 21.0 0.00 1.21 1.21 81 999.2
20260507232511 59 290 10.0 17.0 0.00 1.21 1.21 81 999.2
20260507232010 59 258 9.0 17.0 0.00 1.21 1.21 81 999.3
20260507231530 59 295 8.0 16.0 0.00 1.21 1.21 81 999.3
20260507231014 59 303 9.0 16.0 0.00 1.21 1.21 81 999.5
20260507230507 59 258 8.0 19.0 0.00 1.21 1.21 82 999.6
20260507230016 59 239 11.0 21.0 0.00 1.21 1.21 82 999.7
20260507225512 59 285 9.0 21.0 0.00 1.21 1.21 82 999.6
20260507225007 59 239 7.0 16.0 0.00 1.21 1.21 83 999.7
20260507224517 59 281 8.0 21.0 0.00 1.21 1.21 83 999.7
20260507224013 60 285 7.0 21.0 0.00 1.21 1.21 84 999.8
20260507223508 60 268 9.0 18.0 0.00 1.21 1.21 84 999.7
20260507223021 60 276 10.0 16.0 0.00 1.21 1.21 84 999.6
20260507222508 60 270 7.0 16.0 0.00 1.21 1.21 84 999.3
20260507222004 60 317 7.0 14.0 0.00 1.21 1.21 84 998.9
20260507221507 60 270 9.0 14.0 0.00 1.21 1.21 84 998.8
20260507221009 60 266 6.0 12.0 0.00 1.21 1.21 84 998.5
20260507220506 60 265 5.0 11.0 0.00 1.21 1.21 85 998.5
20260507220007 60 259 4.0 13.0 0.00 1.21 1.21 85 998.5
20260507215506 60 274 6.0 13.0 0.00 1.21 1.21 85 998.4
20260507215005 60 258 4.0 15.0 0.00 1.21 1.21 85 998.4
20260507214514 60 288 6.0 15.0 0.00 1.21 1.21 84 998.2
20260507214007 60 239 10.0 15.0 0.00 1.21 1.21 85 998.0
20260507213507 60 274 6.0 13.0 0.00 1.21 1.21 85 997.6
20260507213020 60 310 6.0 15.0 0.00 1.21 1.21 84 997.4
20260507212509 60 269 8.0 15.0 0.00 1.21 1.21 85 997.3
20260507212012 60 227 7.0 16.0 0.00 1.21 1.21 85 997.4
20260507211529 61 251 9.0 16.0 0.00 1.21 1.21 86 997.6
20260507211004 61 268 6.0 16.0 0.00 1.21 1.21 87 997.8
20260507210504 61 269 9.0 16.0 0.00 1.21 1.21 86 997.9
20260507210006 61 287 6.0 10.0 0.00 1.21 1.21 87 998.2
20260507205505 61 299 4.0 10.0 0.00 1.21 1.21 87 998.4
20260507205007 61 278 3.0 11.0 0.00 1.21 1.21 86 998.5
20260507204514 61 276 4.0 11.0 0.00 1.21 1.21 86 998.3
20260507204005 61 258 5.0 11.0 0.00 1.21 1.21 86 998.1
20260507203506 61 271 3.0 12.0 0.00 1.21 1.21 86 998.1
20260507203018 61 247 5.0 13.0 0.00 1.21 1.21 86 998.3
20260507202508 61 276 6.0 13.0 0.00 1.21 1.21 86 998.2
20260507202010 61 286 3.0 12.0 0.00 1.21 1.21 86 998.3
20260507201526 61 257 5.0 12.0 0.00 1.21 1.21 85 998.3
20260507201010 61 261 8.0 12.0 0.00 1.21 1.21 85 998.4
20260507200510 61 259 5.0 14.0 0.00 1.21 1.21 85 998.3
20260507200025 61 266 5.0 18.0 0.00 1.21 1.21 85 998.7
20260507195503 61 267 8.0 18.0 0.00 1.21 1.21 85 998.8
20260507195003 61 251 9.0 15.0 0.00 1.21 1.21 85 998.6
20260507194510 61 249 6.0 14.0 0.00 1.21 1.21 85 998.5
20260507194007 61 278 8.0 20.0 0.00 1.21 1.21 84 998.7
20260507193507 61 243 12.0 20.0 0.00 1.21 1.21 84 998.8
20260507193016 62 270 8.0 15.0 0.00 1.21 1.21 84 998.8
20260507192509 61 245 7.0 14.0 0.00 1.21 1.21 85 998.7
20260507192008 61 270 6.0 14.0 0.00 1.21 1.21 85 998.4
20260507191520 61 284 6.0 17.0 0.00 1.21 1.21 86 998.7
20260507191011 61 272 6.0 17.0 0.00 1.21 1.21 86 999.0
20260507190510 62 253 7.0 16.0 0.00 1.21 1.21 85 999.0
20260507190023 62 250 8.0 21.0 0.00 1.21 1.21 86 998.8
20260507185510 62 249 11.0 21.0 0.00 1.21 1.21 85 998.9
20260507185009 63 265 14.0 19.0 0.00 1.21 1.21 85 998.9
20260507184512 63 244 5.0 10.0 0.00 1.21 1.21 86 998.9
20260507184005 63 251 5.0 14.0 0.00 1.21 1.21 87 998.8
20260507183504 63 262 7.0 14.0 0.00 1.21 1.21 87 998.8
20260507183012 63 231 7.0 14.0 0.00 1.21 1.21 88 998.6
20260507182508 63 267 8.0 13.0 0.00 1.21 1.21 89 998.5
20260507182008 63 258 4.0 10.0 0.00 1.21 1.21 89 998.2
20260507181516 63 258 5.0 10.0 0.00 1.21 1.21 89 997.9
20260507181006 63 270 3.0 8.0 0.00 1.21 1.21 89 997.3
20260507180511 63 296 5.0 8.0 0.00 1.21 1.21 89 996.9
20260507180022 63 337 2.0 8.0 0.00 1.21 1.21 89 996.8
20260507175509 63 9 3.0 9.0 0.00 1.21 1.21 89 997.2
20260507175008 62 336 5.0 9.0 0.00 1.21 1.21 89 997.6
20260507174526 62 322 3.0 8.0 0.00 1.21 1.21 90 997.9
20260507174009 62 332 4.0 11.0 0.00 1.21 1.21 90 997.9
20260507173510 62 339 6.0 11.0 0.00 1.21 1.21 90 997.2
20260507173010 62 2 5.0 10.0 0.00 1.21 1.21 90 997.4
20260507172507 62 3 5.0 11.0 0.00 1.21 1.21 90 997.4
20260507172006 61 347 5.0 11.0 0.00 1.21 1.21 89 997.4
20260507171513 61 19 4.0 12.0 0.00 1.21 1.21 90 997.3
20260507171008 61 335 4.0 14.0 0.00 1.21 1.21 89 997.6
20260507170510 61 8 6.0 15.0 0.00 1.21 1.21 89 998.2
20260507170022 61 291 7.0 15.0 0.00 1.21 1.21 90 998.7
20260507165510 61 334 6.0 13.0 0.01 1.21 1.21 90 998.7
20260507165014 61 328 4.0 14.0 0.01 1.21 1.21 90 998.6
20260507164522 61 290 4.0 14.0 0.01 1.21 1.21 90 998.3
20260507164008 61 312 7.0 12.0 0.01 1.21 1.21 90 998.6
20260507163510 61 318 6.0 12.0 0.01 1.21 1.21 91 998.8
20260507163028 61 308 6.0 11.0 0.02 1.21 1.21 91 999.0
20260507162510 62 2 7.0 12.0 0.02 1.21 1.21 91 998.9
20260507162004 62 290 9.0 12.0 0.02 1.21 1.21 91 999.0
20260507161513 62 322 6.0 10.0 0.02 1.21 1.21 91 998.9
20260507161008 62 281 5.0 13.0 0.03 1.21 1.21 91 999.0
20260507160506 62 281 6.0 13.0 0.03 1.21 1.21 91 999.2
20260507160020 62 289 5.0 11.0 0.03 1.21 1.21 91 999.7
20260507155509 62 310 5.0 11.0 0.02 1.20 1.20 91 1000.0
20260507155011 62 266 3.0 13.0 0.02 1.20 1.20 92 1000.1
20260507154523 62 287 7.0 13.0 0.02 1.20 1.20 92 1000.2
20260507154010 62 313 2.0 11.0 0.02 1.20 1.20 92 1000.1
20260507153508 62 281 6.0 11.0 0.02 1.20 1.20 92 1000.0
20260507153031 62 299 4.0 10.0 0.01 1.19 1.19 93 1000.0
20260507152510 62 319 3.0 7.0 0.01 1.19 1.19 93 999.8
20260507152011 62 297 3.0 8.0 0.01 1.19 1.19 93 1000.2
20260507151526 62 287 4.0 10.0 0.01 1.19 1.19 93 1000.3
20260507151010 62 322 4.0 10.0 0.00 1.17 1.17 93 1000.7
20260507150508 62 301 5.0 9.0 0.00 1.17 1.17 93 1001.2
20260507150014 62 310 4.0 10.0 0.01 1.17 1.17 93 1001.0
20260507145510 62 318 4.0 10.0 0.02 1.17 1.17 93 1000.4
20260507145009 62 295 7.0 10.0 0.03 1.17 1.17 93 1000.8
20260507144522 62 321 5.0 10.0 0.06 1.17 1.17 93 1000.5
20260507144010 62 321 5.0 11.0 0.07 1.17 1.17 92 1000.4
20260507143507 62 326 6.0 11.0 0.08 1.17 1.17 92 1000.5
20260507143026 62 316 6.0 11.0 0.09 1.17 1.17 92 1000.8
20260507142508 62 317 4.0 10.0 0.10 1.17 1.17 92 1000.7
20260507142010 62 345 3.0 13.0 0.10 1.17 1.17 92 1000.2
20260507141527 62 319 2.0 13.0 0.10 1.17 1.17 92 1000.4
20260507141010 62 309 5.0 12.0 0.10 1.17 1.17 92 1000.8
20260507140512 62 288 4.0 10.0 0.10 1.17 1.17 92 1000.5
20260507140030 62 289 6.0 10.0 0.09 1.16 1.16 92 999.7
20260507135507 62 316 6.0 14.0 0.08 1.16 1.16 92 999.5
20260507135006 62 276 8.0 16.0 0.07 1.15 1.15 91 999.8
20260507134520 62 242 8.0 16.0 0.04 1.12 1.12 91 1000.7
20260507134006 62 305 5.0 17.0 0.03 1.11 1.11 91 1001.2
20260507133510 62 286 8.0 17.0 0.02 1.10 1.10 90 1001.4
20260507133003 62 299 6.0 14.0 0.01 1.09 1.09 90 1001.0
20260507132505 62 283 7.0 12.0 0.00 1.08 1.08 90 1001.0
20260507132005 62 278 5.0 12.0 0.00 1.08 1.08 90 1000.7
20260507131504 62 270 2.0 9.0 0.00 1.08 1.08 90 999.6
20260507131004 62 249 5.0 9.0 0.00 1.08 1.08 90 999.5
20260507130507 62 299 5.0 16.0 0.00 1.08 1.08 89 1000.1
20260507130011 62 254 7.0 15.0 0.00 1.08 1.08 89 1000.5
20260507125504 62 288 7.0 18.0 0.00 1.08 1.08 89 1001.2
20260507125006 62 273 4.0 20.0 0.00 1.08 1.08 89 1001.5
20260507124519 62 256 13.0 20.0 0.00 1.08 1.08 89 1002.1
20260507124012 62 270 4.0 9.0 0.00 1.08 1.08 90 1000.7
20260507123511 62 209 3.0 12.0 0.00 1.08 1.08 90 1000.0
20260507123025 62 249 5.0 14.0 0.00 1.08 1.08 90 1000.6
20260507122505 62 272 6.0 14.0 0.00 1.08 1.08 90 1000.0
20260507122005 62 231 8.0 14.0 0.00 1.08 1.08 90 999.3
20260507121504 62 291 5.0 11.0 0.00 1.08 1.08 91 998.8
20260507121005 62 297 5.0 12.0 0.00 1.08 1.08 90 998.1
20260507120505 61 302 5.0 12.0 0.00 1.08 1.08 91 998.2
20260507120011 61 308 4.0 10.0 0.00 1.08 1.08 91 998.3
20260507115506 61 6 4.0 10.0 0.00 1.08 1.08 91 997.3
20260507115008 61 35 3.0 8.0 0.01 1.08 1.08 91 996.8
20260507114512 61 357 3.0 9.0 0.01 1.08 1.08 91 996.7
20260507114008 61 329 3.0 10.0 0.01 1.08 1.08 91 996.9
20260507113506 61 304 4.0 10.0 0.01 1.08 1.08 91 997.1
20260507113020 61 16 5.0 9.0 0.01 1.08 1.08 91 997.3
20260507112507 61 353 5.0 15.0 0.01 1.08 1.08 90 997.6
20260507112010 61 344 5.0 15.0 0.01 1.08 1.08 90 997.4
20260507111506 61 356 4.0 11.0 0.01 1.08 1.08 90 997.3
20260507111002 61 1 5.0 11.0 0.02 1.08 1.08 90 996.9
20260507110502 61 345 4.0 8.0 0.02 1.08 1.08 91 996.1
20260507110012 61 32 1.0 8.0 0.02 1.08 1.08 91 996.0